FW7308 Weather Reports


Display with metric or nautical units.
time (UTC)temp
F
wind
direction
speed
MPH
gust
MPH
rain 1hr
in
rain 24hr
in
rain mn
in
humidity
%
barometer
mb
20260906095218 54 0.0 0.0 0.00 0.00 0.19 99 1017.5
20260906094717 54 0.0 0.0 0.00 0.00 0.18 99 1017.5
20260906094218 55 0.0 0.0 0.00 0.00 0.18 99 1017.5
20260906093247 55 0.0 0.0 0.00 0.00 0.17 99 1017.3
20260906092746 55 318 1.0 1.0 0.00 0.00 0.17 99 1017.2
20260906092245 55 310 0.0 1.0 0.00 0.00 0.17 99 1017.5
20260906091245 55 310 1.0 2.0 0.00 0.00 0.17 99 1017.2
20260906090244 55 333 1.0 1.0 0.00 0.00 0.16 99 1017.2
20260906085744 55 0.0 0.0 0.00 0.00 0.16 99 1016.8
20260906085242 56 0.0 0.0 0.00 0.00 0.16 99 1016.8
20260906084746 56 0.0 0.0 0.00 0.00 0.16 99 1016.8
20260906084242 56 0.0 0.0 0.00 0.00 0.16 99 1016.8
20260906083741 56 0.0 0.0 0.00 0.00 0.16 99 1016.8
20260906083242 56 325 1.0 1.0 0.00 0.00 0.16 99 1016.8
20260906082744 56 322 1.0 2.0 0.00 0.00 0.16 99 1017.0
20260906082241 56 320 1.0 2.0 0.00 0.00 0.16 99 1016.8
20260906081741 56 332 1.0 1.0 0.00 0.00 0.16 99 1016.8
20260906080240 56 322 1.0 1.0 0.00 0.00 0.16 99 1016.8
20260906075743 56 324 0.0 1.0 0.00 0.00 0.16 99 1016.8
20260906075241 56 323 0.0 1.0 0.00 0.00 0.16 99 1016.8
20260906074742 56 0.0 0.0 0.00 0.00 0.16 99 1016.8
20260906074239 56 318 1.0 1.0 0.00 0.00 0.16 99 1016.8
20260906063734 56 0.0 0.0 0.00 0.00 0.15 99 1016.8
20260906063233 56 0.0 0.0 0.00 0.00 0.15 99 1016.8
20260906062735 56 326 0.0 1.0 0.00 0.00 0.15 99 1016.8
20260906062234 56 326 0.0 1.0 0.00 0.00 0.15 99 1016.8
20260906061733 56 0.0 0.0 0.00 0.00 0.15 99 1016.8
20260906061232 56 0.0 0.0 0.00 0.00 0.15 99 1016.8
20260906060731 56 327 0.0 1.0 0.00 0.00 0.15 99 1016.8
20260906060233 56 323 1.0 1.0 0.00 0.00 0.15 99 1016.8
20260906055731 57 329 1.0 2.0 0.00 0.00 0.15 99 1016.8
20260906051731 56 324 0.0 1.0 0.00 0.00 0.15 99 1016.8
20260906051230 56 0.0 0.0 0.00 0.00 0.15 99 1016.8
20260906050730 56 330 1.0 1.0 0.00 0.00 0.15 99 1016.8
20260906050229 56 0.0 0.0 0.00 0.00 0.15 99 1016.8
20260906045228 56 0.0 0.0 0.00 0.00 0.15 99 1016.8
20260906044229 57 326 0.0 1.0 0.00 0.00 0.14 99 1017.2
20260906043727 56 0.0 0.0 0.00 0.00 0.14 99 1016.8
20260906043226 56 323 1.0 1.0 0.00 0.00 0.13 99 1016.8
20260906042725 56 324 0.0 1.0 0.00 0.00 0.12 99 1016.8
20260906042226 56 0.0 0.0 0.00 0.00 0.11 99 1016.8
20260906041725 57 0.0 0.0 0.00 0.00 0.08 99 1017.2
20260906041225 57 0.0 0.0 0.00 0.00 0.05 99 1017.2
20260906040724 57 0.0 0.0 0.00 0.00 0.01 99 1017.2
20260906040226 57 0.0 0.0 0.00 0.00 0.00 99 1017.2
20260906035724 57 324 1.0 1.0 0.00 0.00 0.15 99 1017.2
20260906035223 57 326 0.0 1.0 0.00 0.00 0.15 99 1017.2
20260906034723 57 329 1.0 1.0 0.00 0.00 0.14 99 1017.2
20260906034224 57 326 1.0 1.0 0.00 0.00 0.13 99 1017.2
20260906033724 57 319 1.0 1.0 0.00 0.00 0.13 99 1016.8
20260906033222 57 330 1.0 1.0 0.00 0.00 0.12 99 1016.8
20260906032721 57 322 1.0 1.0 0.00 0.00 0.12 99 1016.8
20260906032220 57 330 0.0 1.0 0.00 0.00 0.11 99 1016.8
20260906031721 57 0.0 0.0 0.00 0.00 0.11 99 1016.8
20260906031220 57 0.0 0.0 0.00 0.00 0.11 99 1016.8
20260906030719 57 0.0 0.0 0.00 0.00 0.11 99 1016.8
20260906030220 58 0.0 0.0 0.00 0.00 0.11 99 1016.8
20260906025720 58 312 1.0 2.0 0.00 0.00 0.11 99 1016.8
20260906025219 58 280 3.0 3.0 0.00 0.00 0.11 99 1016.6
20260906024718 58 277 3.0 3.0 0.00 0.00 0.11 99 1016.5
20260906024219 58 303 2.0 2.0 0.00 0.00 0.10 99 1016.8
20260906023719 58 304 2.0 3.0 0.00 0.00 0.10 99 1016.6
20260906023218 59 304 2.0 3.0 0.00 0.00 0.09 99 1016.5
20260906022717 59 313 1.0 2.0 0.00 0.00 0.09 99 1016.5
20260906022257 59 317 2.0 2.0 0.00 0.00 0.08 99 1016.5
20260906011744 62 0.0 0.0 0.00 0.00 0.00 96 1016.3
20260906011243 63 323 1.0 2.0 0.00 0.00 0.00 95 1016.1
20260906010745 63 319 2.0 5.0 0.00 0.00 0.00 94 1016.1
20260906010243 63 302 3.0 5.0 0.00 0.00 0.00 94 1016.1
20260906005742 63 319 3.0 5.0 0.00 0.00 0.00 93 1016.1
20260906005241 63 0.0 0.0 0.00 0.00 0.00 93 1016.1
20260906004741 64 327 2.0 2.0 0.00 0.00 0.00 93 1015.8
20260906003841 64 327 1.0 2.0 0.00 0.00 0.00 91 1015.8
20260906003240 63 317 1.0 1.0 0.00 0.00 0.00 93 1015.8
20260906002739 63 317 1.0 2.0 0.00 0.00 0.00 96 1015.6
20260906002239 63 322 2.0 3.0 0.00 0.00 0.00 95 1015.4
20260906001740 63 322 1.0 1.0 0.00 0.00 0.00 96 1015.4
20260906001239 64 322 1.0 1.0 0.00 0.00 0.00 94 1015.4
20260906000738 64 324 1.0 1.0 0.00 0.00 0.00 92 1015.6
20260906000304 64 327 2.0 2.0 0.00 0.00 0.00 93 1015.4
20260905235738 64 320 1.0 2.0 0.00 0.00 0.00 92 1015.4
20260905235237 63 322 1.0 1.0 0.00 0.00 0.00 95 1015.4
20260905234737 63 324 1.0 1.0 0.00 0.00 0.00 96 1015.4
20260905234236 63 322 1.0 1.0 0.00 0.00 0.00 96 1015.4
20260905233737 63 326 1.0 1.0 0.00 0.00 0.00 96 1015.1
20260905233236 63 325 1.0 1.0 0.00 0.00 0.00 95 1015.1
20260905232735 63 325 1.0 1.0 0.00 0.00 0.00 95 1015.1
20260905232234 63 324 1.0 1.0 0.00 0.00 0.00 95 1015.1
20260905231736 63 322 1.0 1.0 0.00 0.00 0.00 95 1015.1
20260905231235 63 324 1.0 1.0 0.00 0.00 0.00 95 1015.1
20260905230734 63 326 1.0 1.0 0.00 0.00 0.00 94 1014.9
20260905230235 64 326 1.0 1.0 0.00 0.00 0.00 91 1015.1
20260905225736 64 326 1.0 1.0 0.00 0.00 0.00 91 1015.1
20260905225234 64 0.0 0.0 0.00 0.00 0.00 90 1015.1
20260905224733 65 0.0 0.0 0.00 0.00 0.00 88 1015.1
20260905224233 66 0.0 0.0 0.00 0.00 0.00 88 1015.1
20260905223733 66 0.0 0.0 0.00 0.00 0.00 88 1014.7
20260905223333 67 0.0 0.0 0.00 0.00 0.00 84 1014.7
20260905222231 68 330 1.0 1.0 0.00 0.00 0.00 83 1014.7
20260905221732 68 330 1.0 1.0 0.00 0.00 0.00 83 1014.7
20260905221231 69 345 3.0 3.0 0.00 0.00 0.00 78 1014.7
20260905220730 69 345 3.0 3.0 0.00 0.00 0.00 78 1014.7
20260905220232 69 316 1.0 2.0 0.00 0.00 0.00 78 1014.7
20260905215731 69 329 1.0 1.0 0.00 0.00 0.00 78 1014.7
20260905215230 70 356 3.0 7.0 0.00 0.00 0.00 76 1014.7
20260905214729 70 328 3.0 5.0 0.00 0.00 0.00 75 1014.4
20260905214228 69 338 2.0 3.0 0.00 0.00 0.00 75 1014.7
20260905213730 71 334 1.0 2.0 0.00 0.00 0.00 72 1014.4
20260905213229 70 320 1.0 2.0 0.00 0.00 0.00 75 1014.4
20260905212728 69 313 1.0 2.0 0.00 0.00 0.00 76 1014.4
20260905211726 68 326 5.0 6.0 0.00 0.00 0.00 77 1014.2
20260905211227 69 329 4.0 7.0 0.00 0.00 0.00 75 1014.0
20260905210727 69 329 4.0 7.0 0.00 0.00 0.00 75 1014.0
20260905210226 69 345 2.0 3.0 0.00 0.00 0.00 74 1014.0
20260905205725 70 336 1.0 1.0 0.00 0.00 0.00 73 1014.0
20260905205226 70 319 2.0 2.0 0.00 0.00 0.00 72 1014.0
20260905204725 72 309 5.0 5.0 0.00 0.00 0.00 73 1014.0
20260905204225 72 324 2.0 3.0 0.00 0.00 0.00 70 1014.0
20260905203724 73 317 1.0 2.0 0.00 0.00 0.00 70 1014.0
20260905203225 72 314 1.0 1.0 0.00 0.00 0.00 74 1013.7
20260905202724 72 279 6.0 7.0 0.00 0.00 0.00 73 1013.8
20260905202223 72 322 2.0 2.0 0.00 0.00 0.00 73 1013.7
20260905201723 71 333 3.0 5.0 0.00 0.00 0.00 72 1013.7
20260905201224 72 325 2.0 2.0 0.00 0.00 0.00 73 1013.7
20260905200823 73 324 2.0 2.0 0.00 0.00 0.00 71 1013.7
20260905200322 73 324 2.0 2.0 0.00 0.00 0.00 71 1013.7
20260905195721 73 291 3.0 3.0 0.00 0.00 0.00 72 1013.5
20260905195324 73 263 8.0 10.0 0.00 0.00 0.00 71 1013.3
20260905194823 73 329 4.0 6.0 0.00 0.00 0.00 70 1013.3
20260905194224 74 335 5.0 7.0 0.00 0.00 0.00 69 1013.7
20260905193720 73 297 5.0 8.0 0.00 0.00 0.00 68 1013.7
20260905193221 73 311 5.0 7.0 0.00 0.00 0.00 71 1013.3
20260905192720 73 332 6.0 8.0 0.00 0.00 0.00 68 1013.7
20260905192219 73 326 3.0 3.0 0.00 0.00 0.00 70 1013.7
20260905191719 73 329 1.0 1.0 0.00 0.00 0.00 70 1013.7
20260905191220 74 296 4.0 6.0 0.00 0.00 0.00 69 1013.7
20260905190719 73 318 1.0 2.0 0.00 0.00 0.00 70 1013.7
20260905190218 72 341 3.0 5.0 0.00 0.00 0.00 73 1013.7
20260905185717 73 326 5.0 8.0 0.00 0.00 0.00 71 1014.0
20260905185217 72 71 2.0 3.0 0.00 0.00 0.00 74 1013.7
20260905184718 72 329 3.0 3.0 0.00 0.00 0.00 72 1013.3
20260905184218 73 337 1.0 2.0 0.00 0.00 0.00 71 1013.7
20260905183716 72 282 4.0 6.0 0.00 0.00 0.00 74 1013.7
20260905183318 72 305 2.0 5.0 0.00 0.00 0.00 73 1013.7
20260905182717 72 295 3.0 5.0 0.00 0.00 0.00 72 1013.7
20260905181745 70 328 2.0 3.0 0.00 0.00 0.00 76 1013.7
20260905181244 70 312 1.0 1.0 0.00 0.00 0.00 77 1013.7
20260905180746 70 313 6.0 7.0 0.00 0.00 0.00 78 1013.7
20260905180245 70 328 4.0 8.0 0.00 0.00 0.00 78 1013.8
20260905175744 70 338 2.0 5.0 0.00 0.00 0.00 78 1013.7
20260905175243 69 319 6.0 7.0 0.00 0.00 0.00 77 1013.7
20260905174245 70 336 3.0 5.0 0.00 0.00 0.00 78 1013.7
20260905173743 70 345 3.0 7.0 0.00 0.00 0.00 78 1014.0
20260905173242 70 301 2.0 2.0 0.00 0.00 0.00 77 1013.7
20260905172743 70 315 2.0 3.0 0.00 0.00 0.00 77 1013.7
20260905172242 70 336 3.0 3.0 0.00 0.00 0.00 76 1013.7
20260905171741 70 320 2.0 3.0 0.00 0.00 0.00 75 1013.7
20260905171240 73 337 2.0 3.0 0.00 0.00 0.00 71 1013.7
20260905170741 70 17 2.0 2.0 0.00 0.00 0.00 75 1013.7
20260905170241 70 292 3.0 6.0 0.00 0.00 0.00 75 1013.7
20260905165740 71 296 3.0 3.0 0.00 0.00 0.00 75 1013.7
20260905164740 72 307 4.0 5.0 0.00 0.00 0.00 74 1013.7
20260905164239 71 339 2.0 3.0 0.00 0.00 0.00 75 1013.7
20260905163739 71 292 2.0 5.0 0.00 0.00 0.00 75 1013.7
20260905163238 71 358 4.0 7.0 0.00 0.00 0.00 73 1013.7
20260905162238 69 352 1.0 2.0 0.00 0.00 0.00 78 1014.0
20260905161739 68 318 3.0 6.0 0.00 0.00 0.00 79 1014.0
20260905161238 69 324 3.0 6.0 0.00 0.00 0.00 78 1014.0
20260905160738 69 330 2.0 3.0 0.00 0.00 0.00 78 1014.0
20260905160238 70 33 5.0 6.0 0.00 0.00 0.00 76 1014.0
20260905155739 70 334 0.0 1.0 0.00 0.00 0.00 77 1014.0
20260905155235 70 324 1.0 2.0 0.00 0.00 0.00 75 1013.8
20260905154736 70 321 3.0 5.0 0.00 0.00 0.00 75 1014.0
20260905154236 72 307 6.0 8.0 0.00 0.00 0.00 72 1014.0
20260905153735 72 327 4.0 6.0 0.00 0.00 0.00 73 1014.0
20260905153234 71 337 2.0 3.0 0.00 0.00 0.00 74 1014.0
20260905152835 70 321 7.0 8.0 0.00 0.00 0.00 75 1014.0
20260905152234 71 14 5.0 7.0 0.00 0.00 0.00 74 1014.0
20260905151733 69 313 2.0 3.0 0.00 0.00 0.00 76 1014.0
20260905151233 68 330 4.0 7.0 0.00 0.00 0.00 77 1014.0
20260905150832 68 327 2.0 3.0 0.00 0.00 0.00 79 1014.0
20260905150233 69 324 2.0 3.0 0.00 0.00 0.00 79 1014.0
20260905145732 68 340 7.0 8.0 0.00 0.00 0.00 77 1014.0
20260905144733 68 319 2.0 2.0 0.00 0.00 0.00 79 1014.0
20260905144232 68 334 4.0 8.0 0.00 0.00 0.00 80 1013.7
20260905143731 68 333 3.0 3.0 0.00 0.00 0.00 80 1014.0
20260905143230 66 340 2.0 5.0 0.00 0.00 0.00 81 1014.0
20260905142731 67 306 4.0 5.0 0.00 0.00 0.00 82 1014.0
20260905142331 67 332 4.0 6.0 0.00 0.00 0.00 82 1014.0
20260905141730 68 306 5.0 6.0 0.00 0.00 0.00 81 1014.0
20260905141229 68 314 2.0 3.0 0.00 0.00 0.00 82 1014.0
20260905140728 68 339 6.0 8.0 0.00 0.00 0.00 83 1014.0
20260905140230 67 333 4.0 6.0 0.00 0.00 0.00 86 1014.0
20260905135732 67 317 1.0 2.0 0.00 0.00 0.00 85 1014.0
20260905135230 67 333 3.0 5.0 0.00 0.00 0.00 86 1014.0
20260905134727 66 331 2.0 5.0 0.00 0.00 0.00 88 1014.0
20260905134228 66 315 3.0 5.0 0.00 0.00 0.00 87 1014.0
20260905133727 65 316 4.0 6.0 0.00 0.00 0.00 89 1014.0
20260905133228 65 331 2.0 5.0 0.00 0.00 0.00 90 1014.0
20260905132726 64 294 1.0 3.0 0.00 0.00 0.00 90 1014.0
20260905132229 64 330 4.0 5.0 0.00 0.00 0.00 91 1014.0
20260905131726 64 354 3.0 6.0 0.00 0.00 0.00 92 1014.0
20260905131225 63 344 6.0 7.0 0.00 0.00 0.00 91 1014.0
20260905130726 63 317 2.0 5.0 0.00 0.00 0.00 92 1014.0
20260905130225 62 306 3.0 5.0 0.00 0.00 0.00 95 1014.0
20260905125725 62 323 1.0 1.0 0.00 0.00 0.00 94 1014.0
20260905125223 62 309 2.0 5.0 0.00 0.00 0.00 95 1014.0
20260905124722 61 324 1.0 2.0 0.00 0.00 0.00 96 1013.8
20260905124223 61 309 2.0 2.0 0.00 0.00 0.00 96 1014.0
20260905123723 61 0.0 0.0 0.00 0.00 0.00 97 1014.0
20260905123222 61 343 2.0 2.0 0.00 0.00 0.00 97 1014.0
20260905122721 61 323 0.0 1.0 0.00 0.00 0.00 96 1013.8
20260905122222 61 0.0 0.0 0.00 0.00 0.00 96 1013.7
20260905121721 61 318 0.0 1.0 0.00 0.00 0.00 96 1013.7
20260905121220 61 318 1.0 1.0 0.00 0.00 0.00 97 1013.7
20260905120720 61 316 1.0 1.0 0.00 0.00 0.00 97 1013.7
20260905120221 60 317 1.0 1.0 0.00 0.00 0.00 97 1013.7
20260905115721 60 319 1.0 1.0 0.00 0.00 0.00 99 1013.3
20260905115220 60 0.0 0.0 0.00 0.00 0.00 99 1013.3
20260905114721 59 0.0 0.0 0.00 0.00 0.00 99 1013.3
20260905113719 58 0.0 0.0 0.00 0.00 0.00 99 1013.3
20260905113218 58 325 1.0 1.0 0.00 0.00 0.00 99 1013.3
20260905112219 57 323 1.0 2.0 0.00 0.00 0.00 99 1013.3
20260905111718 57 324 1.0 2.0 0.00 0.00 0.00 99 1013.3
20260905111217 57 326 1.0 1.0 0.00 0.00 0.00 99 1013.3
20260905110756 57 324 1.0 1.0 0.00 0.00 0.00 99 1013.3
20260905100243 56 324 1.0 2.0 0.00 0.00 0.00 99 1012.8
20260905095743 57 321 1.0 2.0 0.00 0.00 0.00 99 1012.6